Location: Vancouver
(49.2500°N, 123.1330°W)
Time: 08:18:26
(UTC-08:00)

A-11 Canister half - Visible Passes

Search period start: 22 February 2018 00:00
Search period end: 04 March 2018 00:00
Orbit: 1527 x 1682 km, 47.3° (Epoch: 22 February)

Date Brightness Start Highest point End Pass type
(mag) Time Alt. Az. Time Alt. Az. Time Alt. Az.
22 Feb 8.9 19:38:50 10° W 19:48:11 78° S 19:53:07 32° ESE visible
22 Feb 9.4 21:43:47 10° WNW 21:51:25 47° SW 21:51:25 47° SW visible
23 Feb 9.0 19:17:14 10° W 19:26:36 79° S 19:32:47 25° ESE visible
23 Feb 9.3 21:22:11 10° WNW 21:31:02 50° SSW 21:31:05 50° SSW visible
23 Feb 11.0 23:28:28 10° W 23:29:24 12° W 23:29:24 12° W visible
24 Feb 9.0 18:55:38 10° W 19:05:01 79° S 19:12:29 18° ESE visible
24 Feb 9.2 21:00:35 10° WNW 21:09:28 52° SSW 21:10:47 49° S visible
24 Feb 10.8 23:06:42 10° W 23:09:06 15° WSW 23:09:06 15° WSW visible
25 Feb 9.1 18:34:01 10° W 18:43:27 80° S 18:52:12 12° ESE visible
25 Feb 9.3 20:38:59 10° WNW 20:47:56 53° SSW 20:50:31 43° SSE visible
25 Feb 10.6 22:44:58 10° W 22:48:50 19° WSW 22:48:50 19° WSW visible
26 Feb 9.1 18:12:25 10° W 18:21:51 80° S 18:31:10 10° E visible
26 Feb 9.3 20:17:23 10° WNW 20:26:23 55° SSW 20:30:16 35° SSE visible
26 Feb 10.4 22:23:14 10° W 22:28:36 21° WSW 22:28:36 21° WSW visible
27 Feb 9.3 19:55:47 10° WNW 20:04:50 57° SSW 20:10:05 27° SE visible
27 Feb 10.3 22:01:32 10° W 22:08:18 23° SW 22:08:24 23° SW visible
28 Feb 9.3 19:34:11 10° WNW 19:43:17 58° SSW 19:49:56 20° SE visible
28 Feb 10.2 21:39:50 10° W 21:46:49 24° SW 21:48:15 23° SW visible
01 Mar 9.3 19:12:35 10° W 19:21:43 60° SSW 19:29:50 14° SE visible
01 Mar 10.2 21:18:09 10° W 21:25:19 26° SW 21:28:10 22° SSW visible
02 Mar 9.4 18:50:59 10° W 19:00:10 61° SSW 19:09:15 10° SE visible
02 Mar 10.3 20:56:28 10° W 21:03:48 27° SW 21:08:09 19° S visible
03 Mar 9.4 18:29:22 10° W 18:38:36 63° SSW 18:47:42 10° SE visible
03 Mar 10.3 20:34:49 10° W 20:42:18 28° SW 20:48:11 15° S visible
